Flag for Canada Weather past 2 weeks in Abbotsford, British Columbia, Canada

Now
57 °F

Mostly cloudy.


Feels Like: 57 °F
Forecast: 52 / 70 °F
Wind: No wind

Location: Abbotsford

Current Time: May 26, 2015 at 1:18:03 AM

Latest Report: May 26, 2015 at 12:00 AM


Visibility: 10 mi

Pressure: 30.02 "Hg

Humidity: 88%

Dew point: 54 °F

Location of AbbotsfordLocation

Historic Weather in Abbotsford — Graph

°F

Abbotsford temperature yesterday

Maximum temperature yesterday: 61 °F (at 5:00 PM)
Minimum temperature yesterday: 52 °F (at 8:00 AM)
Average temperature yesterday: 56 °F

Past Weeks' High & Low Weather Summary

 TemperatureHumidityPressure
High79 °F (May 21, 3:00 PM)100% (May 12, 6:00 AM)30.18 "Hg (May 12, 6:00 AM)
Low46 °F (May 12, 4:00 AM)42% (May 18, 3:00 PM)29.79 "Hg (May 21, 4:00 PM)
Average59 °F79%29.97 "Hg
* Reported Midnight between May 10 and May 11 — Midnight between May 25 and May 26, Abbotsford, Weather by CustomWeather, © 2015

Note: Actual official high and low records may vary slightly from our data, if they occured in-between our weather recording intervals... More about our weather records

Advertising

Abbotsford weather history for previous 24 hours

 ConditionsComfort  
Time TempWeatherWind HumidityBarometerVisibility
12:00 AM
Tue, May 26
57 °FMostly cloudy.No wind88%30.02 "Hg10 mi
11:00 PM
Mon, May 25
57 °FOvercast.No wind88%30.02 "Hg10 mi
10:00 PM59 °FOvercast.3 mph82%30.01 "Hg10 mi
9:00 PM59 °FMostly cloudy.3 mph77%30.01 "Hg15 mi
8:00 PM59 °FCloudy.3 mph77%30.00 "Hg15 mi
7:00 PM59 °FPartly sunny.2 mph82%29.99 "Hg15 mi
6:00 PM59 °FMostly cloudy.7 mph82%30.00 "Hg15 mi
5:00 PM61 °FBroken clouds.6 mph77%30.00 "Hg15 mi
4:00 PM59 °FMostly cloudy.3 mph82%30.01 "Hg15 mi
3:00 PM59 °FMostly cloudy.10 mph82%30.02 "Hg15 mi
2:00 PM57 °FMostly cloudy.10 mph88%30.02 "Hg10 mi
1:00 PM55 °FLight rain. Fog.7 mph94%30.03 "Hg3 mi
12:00 PM54 °FLight rain. Fog.7 mph100%30.01 "Hg3 mi
11:00 AM54 °FLight rain. Fog.7 mph94%30.01 "Hg5 mi
10:00 AM54 °FLight rain. Fog.8 mph94%30.01 "Hg5 mi
9:00 AM52 °FLight rain. Fog.6 mph100%30.01 "Hg3 mi
8:00 AM52 °FLight rain. Mostly cloudy.6 mph100%29.99 "Hg4 mi
7:00 AM54 °FMore clouds than sun.8 mph88%29.98 "Hg10 mi
6:00 AM54 °FMostly cloudy.6 mph88%29.98 "Hg10 mi
5:00 AM54 °FCool.5 mph88%29.98 "Hg20 mi
4:00 AM54 °FMostly cloudy.6 mph88%29.98 "Hg10 mi
3:00 AM54 °FOvercast.3 mph88%29.99 "Hg10 mi
2:00 AM54 °FOvercast.3 mph88%29.99 "Hg10 mi
1:00 AM55 °FOvercast.7 mph88%29.99 "Hg10 mi
Weather by CustomWeather, © 2015

See weather overviewHow to use our weather pages